Weather History for KUCP - December, 2012

Change the Weather History Date:

Monday, December 24, 2012

  Actual Average Record
Temperature  
Mean Temperature 26 °F -  
Max Temperature 36 °F 37 °F - (-1)
Min Temperature 17 °F 20 °F - (-1)
Degree Days  
Heating Degree Days 38    
Moisture  
Dew Point 27 °F    
Average Humidity 93    
Maximum Humidity 100    
Minimum Humidity 67    
Precipitation  
Precipitation 0.01 in - - ()
Sea Level Pressure  
Sea Level Pressure 29.89 in    
Wind  
Wind Speed 2 mph (ENE)    
Max Wind Speed 8 mph    
Max Gust Speed -    
Visibility 4 miles    
Events Fog , Snow    
Averages and records for this station are not official NWS values.
T = Trace of Precipitation, MM = Missing Value Source: NWS Daily Summary

Daily Weather History Graph

Daily Weather History Graph

Search for Another Location

Airport or City:

Trip Planner

Search our weather history database for the weather conditions in past years. The results will help you decide how hot, cold, wet, or windy it might be!

Date:

Astronomy

Dec. 24, 2012 Rise Set
Actual Time 7:44 AM EST 4:58 PM EST
Civil Twilight 7:13 AM EST 5:29 PM EST
Nautical Twilight 6:38 AM EST 6:04 PM EST
Astronomical Twilight 6:05 AM EST 6:37 PM EST
Moon 2:25 PM EST (12/24) 4:21 AM EST (12/24)
Length of Visible Light 10h 15m
Length of Day
9h 13m
Waxing Gibbous, 88% of the Moon is Illuminated
Dec 24
Waxing Gibbous
Dec 28
Full
Jan 4
Last Quarter
Jan 11
New
Jan 18
First Quarter

Hourly Weather History & Observations

Time (EST) Temp. Windchill Dew Point Humidity Pressure Visibility Wind Dir Wind Speed Gust Speed Precip Events Conditions
12:56 AM 19.0 °F - 18.1 °F 96% 30.08 in 5.0 mi Calm Calm - N/A   Clear
1:56 AM 18.1 °F - 16.2 °F 92% 30.08 in 6.0 mi Calm Calm - N/A   Clear
2:56 AM 18.1 °F - 16.2 °F 92% 30.09 in 5.0 mi Calm Calm - N/A   Clear
3:56 AM 18.1 °F - 16.2 °F 92% 30.09 in 5.0 mi Calm Calm - N/A   Clear
4:56 AM 17.1 °F - 15.1 °F 92% 30.09 in 6.0 mi Calm Calm - N/A   Clear
5:56 AM 17.1 °F - 15.1 °F 92% 30.08 in 7.0 mi Calm Calm - N/A   Clear
6:56 AM 19.0 °F 12.3 °F 17.1 °F 92% 30.07 in 8.0 mi East 4.6 mph - N/A   Clear
7:56 AM 19.0 °F 11.1 °F 17.1 °F 92% 30.06 in 7.0 mi ENE 5.8 mph - N/A   Clear
8:56 AM 21.0 °F 11.4 °F 19.0 °F 92% 30.02 in 7.0 mi ENE 8.1 mph - N/A   Clear
9:56 AM 25.2 °F 19.5 °F 21.0 °F 84% 30.02 in 10.0 mi Variable 4.6 mph - N/A   Clear
10:56 AM 29.1 °F 22.1 °F 23.0 °F 78% 30.01 in 10.0 mi East 6.9 mph - N/A   Clear
11:56 AM 32.9 °F 27.5 °F 25.2 °F 73% 29.97 in 10.0 mi East 5.8 mph - N/A   Scattered Clouds
12:56 PM 34.9 °F 30.8 °F 25.2 °F 68% 29.92 in 10.0 mi Variable 4.6 mph - N/A   Clear
1:56 PM 34.9 °F 29.9 °F 26.1 °F 70% 29.89 in 10.0 mi NE 5.8 mph - N/A   Partly Cloudy
2:56 PM 36.0 °F 32.1 °F 26.1 °F 67% 29.88 in 10.0 mi East 4.6 mph - N/A   Overcast
3:56 PM 36.0 °F 33.3 °F 27.1 °F 70% 29.87 in 10.0 mi ESE 3.5 mph - 0.00 in   Mostly Cloudy
4:41 PM 35.6 °F 31.7 °F 28.4 °F 75% 29.78 in 2.5 mi ESE 4.6 mph - 0.00 in Snow Light Snow
4:45 PM 33.8 °F 29.6 °F 28.4 °F 81% 29.78 in 1.8 mi ESE 4.6 mph - 0.00 in Snow Light Snow
4:49 PM 33.8 °F 29.6 °F 28.4 °F 81% 29.77 in 1.8 mi East 4.6 mph - 0.00 in Snow Light Snow
4:56 PM 32.9 °F 27.5 °F 30.0 °F 89% 29.85 in 1.8 mi East 5.8 mph - 0.00 in Snow Light Snow
5:02 PM 33.8 °F 28.6 °F 30.2 °F 87% 29.77 in 2.5 mi East 5.8 mph - 0.00 in Snow Light Snow
5:09 PM 33.8 °F - 30.2 °F 87% 29.77 in 6.0 mi Calm Calm - 0.01 in   Overcast
5:44 PM 32.0 °F 27.5 °F 30.2 °F 93% 29.81 in 1.8 mi NNW 4.6 mph - 0.01 in   Overcast
5:56 PM 32.0 °F 27.5 °F 30.0 °F 92% 29.89 in 1.8 mi North 4.6 mph - 0.01 in Snow Light Snow
6:04 PM 30.2 °F 25.4 °F 30.2 °F 100% 29.80 in 2.0 mi NNE 4.6 mph - 0.00 in Snow Light Snow
6:27 PM 30.2 °F 25.4 °F 30.2 °F 100% 29.81 in 2.5 mi NNE 4.6 mph - 0.00 in Snow Light Snow
6:34 PM 30.2 °F 25.4 °F 30.2 °F 100% 29.80 in 2.5 mi NNE 4.6 mph - 0.00 in Snow Light Snow
6:36 PM 30.2 °F 26.7 °F 30.2 °F 100% 29.80 in 3.0 mi NNE 3.5 mph - 0.00 in Snow Light Snow
6:56 PM 31.1 °F 25.4 °F 30.0 °F 96% 29.89 in 3.0 mi NE 5.8 mph - 0.00 in Snow Light Snow
7:05 PM 30.2 °F 25.4 °F 30.2 °F 100% 29.80 in 3.0 mi NE 4.6 mph - 0.00 in   Overcast
7:12 PM 30.2 °F 26.7 °F 30.2 °F 100% 29.81 in 2.5 mi NNE 3.5 mph - 0.00 in   Mostly Cloudy
7:24 PM 30.2 °F 25.4 °F 30.2 °F 100% 29.81 in 3.0 mi NNW 4.6 mph - 0.00 in Snow Light Snow
7:29 PM 30.2 °F 26.7 °F 30.2 °F 100% 29.81 in 2.5 mi Variable 3.5 mph - 0.00 in Snow Light Snow
7:56 PM 31.1 °F 26.4 °F 31.1 °F 100% 29.89 in 2.5 mi ENE 4.6 mph - 0.00 in Snow Light Snow
8:03 PM 30.2 °F 26.7 °F 30.2 °F 100% 29.81 in 2.0 mi NE 3.5 mph - 0.00 in Snow Light Snow
8:15 PM 30.2 °F - 30.2 °F 100% 29.81 in 2.5 mi Calm Calm - 0.00 in   Overcast
8:38 PM 30.2 °F - 30.2 °F 100% 29.81 in 1.5 mi Calm Calm - 0.00 in   Overcast
8:56 PM 31.1 °F - 31.1 °F 100% 29.91 in 1.2 mi Calm Calm - 0.00 in   Overcast
9:05 PM 30.2 °F - 30.2 °F 100% 29.83 in 1.0 mi Calm Calm - N/A   Overcast
9:23 PM 30.2 °F - 30.2 °F 100% 29.84 in 0.8 mi Calm Calm - N/A   Overcast
9:33 PM 30.2 °F - 30.2 °F 100% 29.84 in 0.5 mi Calm Calm - N/A Fog Light Freezing Fog
9:41 PM 30.2 °F - 30.2 °F 100% 29.84 in 0.8 mi Calm Calm - N/A   Mist
9:45 PM 30.2 °F - 30.2 °F 100% 29.84 in 1.2 mi Calm Calm - N/A   Mostly Cloudy
9:56 PM 31.1 °F - 31.1 °F 100% 29.93 in 1.5 mi Calm Calm - N/A   Mostly Cloudy
10:18 PM 30.2 °F - 30.2 °F 100% 29.85 in 1.2 mi Calm Calm - N/A   Mostly Cloudy
10:20 PM 30.2 °F - 30.2 °F 100% 29.85 in 0.8 mi Calm Calm - N/A   Mostly Cloudy
10:25 PM 30.2 °F - 30.2 °F 100% 29.85 in 0.2 mi Calm Calm - N/A Fog Light Freezing Fog
10:35 PM 30.2 °F - 30.2 °F 100% 29.85 in 0.8 mi Calm Calm - N/A   Overcast
10:40 PM 30.2 °F - 30.2 °F 100% 29.85 in 1.2 mi Calm Calm - N/A   Overcast
10:44 PM 30.2 °F - 30.2 °F 100% 29.85 in 2.0 mi Calm Calm - N/A   Overcast
10:56 PM 31.1 °F - 31.1 °F 100% 29.94 in 1.8 mi Calm Calm - N/A   Overcast
11:07 PM 30.2 °F - 30.2 °F 100% 29.86 in 1.2 mi Calm Calm - N/A   Overcast
11:15 PM 30.2 °F - 30.2 °F 100% 29.87 in 1.0 mi Calm Calm - N/A   Overcast
11:22 PM 30.2 °F - 30.2 °F 100% 29.87 in 0.5 mi Calm Calm - N/A Fog Light Freezing Fog
11:33 PM 30.2 °F - 30.2 °F 100% 29.87 in 0.2 mi Calm Calm - N/A Fog Light Freezing Fog
11:46 PM 30.2 °F - 30.2 °F 100% 29.88 in 0.5 mi Calm Calm - N/A Fog Light Freezing Fog
11:56 PM 32.0 °F - 31.1 °F 96% 29.96 in 1.0 mi Calm Calm - N/A   Mostly Cloudy